Wetbulb
70.20 67.40 66.91 63.77 56.20 56.16 53.52 55.49 61.80 60.47 60.76 64.62 63.68 61.07 58.46 62.31 61.42 59.18 71.33 73.64 74.29 74.00 75.35 74.68 76.61 75.67 75.22 75.13 75.23 75.56 75.81 75.81 76.01 75.83 75.58 75.56 75.51 75.51 75.46 75.38 75.48 75.42 75.13 74.58 74.08 73.41 73.02 72.83 72.33
68.16 65.91 63.51 60.28 53.11 48.63 50.22 57.82 57.08 60.88 63.32 64.52 62.96 63.05 60.94 61.28 67.53 68.25 69.57 73.17 74.01 74.77 75.78 75.51 76.94 76.11 75.40 75.13 75.11 75.06 75.38 75.66 75.63 75.58 75.71 75.51 75.26 74.93 74.60 74.50 74.24 74.11 73.64 73.26 72.86 72.40 71.92 71.46 70.92
64.87 62.45 60.31 56.75 53.07 48.08 49.48 53.62 56.91 62.61 64.45 64.31 62.79 64.90 63.71 63.77 68.00 69.05 71.23 73.31 73.79 74.49 75.57 75.50 76.81 76.29 75.53 75.63 75.56 75.23 75.08 74.93 75.23 75.51 75.53 75.38 74.95 74.73 74.26 74.16 74.25 74.13 73.91 73.70 73.37 72.98 72.34 72.19 72.09
63.38 60.19 57.42 53.54 48.94 50.87 52.87 59.28 63.11 62.86 63.83 65.70 63.65 61.28 65.59 68.62 69.41 71.13 72.48 73.42 73.35 73.81 74.51 75.32 76.08 76.11 75.56 75.33 75.53 75.23 75.08 74.76 74.66 74.48 74.41 74.31 74.33 74.20 74.08 73.96 73.91 73.98 74.09 74.21 73.93 73.54 72.97 72.64 72.41
58.30 57.47 54.43 50.54 48.86 55.71 60.75 64.16 64.20 62.79 63.33 63.36 63.59 60.62 63.25 68.68 70.15 71.26 72.52 72.48 72.26 73.38 74.49 74.78 75.58 75.78 75.33 75.05 75.33 75.18 75.08 74.98 74.86 74.58 74.46 74.28 73.98 73.68 73.61 73.76 73.76 73.81 73.80 74.15 74.35 74.35 74.26 73.83 73.23
54.46 54.82 52.43 48.47 48.00 54.61 60.89 63.40 62.93 61.98 62.75 62.83 62.38 62.02 64.15 68.74 69.11 70.63 72.93 71.94 72.77 73.04 73.34 73.64 75.27 75.76 75.61 75.36 75.23 75.17 75.05 74.85 74.45 74.23 73.86 73.61 73.36 73.39 73.51 73.49 73.51 73.81 73.86 73.88 73.93 73.91 74.18 74.38 73.78
51.81 52.85 49.73 48.02 48.00 52.85 59.79 63.47 62.07 62.04 61.17 61.05 62.40 60.26 64.03 67.50 71.12 72.63 72.08 72.03 71.74 71.80 72.07 72.82 73.65 74.81 75.10 75.00 74.95 74.45 73.88 73.56 73.16 73.04 72.99 73.06 73.26 73.39 73.39 73.24 73.39 73.31 73.56 73.56 73.61 73.83 73.98 74.35 74.10
52.48 52.31 47.46 47.61 47.89 52.23 60.90 62.46 63.52 62.20 60.36 63.92 64.25 59.90 60.99 67.60 71.80 71.74 70.81 70.69 71.00 71.40 71.43 71.37 72.92 73.05 73.21 73.08 73.78 73.68 73.64 73.46 73.56 73.78 74.00 73.82 73.68 73.08 73.41 73.35 72.49 72.59 73.16 73.66 74.33 74.43 74.75 74.82 74.69
50.20 49.25 47.12 47.52 47.47 53.94 61.77 60.71 62.95 64.65 62.42 63.13 64.29 64.39 67.55 70.05 70.64 69.31 68.68 69.28 70.27 70.76 71.71 71.99 71.99 72.44 73.19 73.19 73.23 72.48 71.42 71.80 72.28 70.71 70.00 70.11 72.33 72.36 71.63 70.17 70.84 71.16 71.68 72.44 72.52 73.29 74.15 74.35 74.26
50.18 47.96 47.54 49.41 50.65 51.13 52.14 61.14 62.41 61.87 60.91 61.09 63.90 66.68 67.19 67.70 67.58 66.56 65.99 65.62 65.70 66.90 70.22 71.84 73.21 73.53 73.94 72.63 71.93 70.86 70.63 70.85 70.54 70.17 70.78 70.66 71.27 70.68 68.53 68.92 70.35 69.52 70.69 70.86 71.16 70.67 70.25 71.46 73.17
47.44 46.75 47.83 48.84 50.86 51.03 58.98 61.05 61.87 60.81 59.06 61.31 62.27 62.67 64.48 64.95 63.02 63.35 63.63 63.67 64.37 66.17 68.36 69.55 71.33 72.34 72.70 71.33 70.38 69.47 69.09 68.94 69.29 69.41 69.23 69.42 68.79 68.64 68.47 70.66 70.10 70.37 69.82 70.09 69.44 69.45 70.72 71.03 71.36
47.53 48.69 48.66 49.34 49.92 49.53 59.31 62.16 60.27 61.48 61.11 63.78 63.90 63.63 63.70 61.94 60.88 61.71 62.79 62.87 63.52 65.91 67.64 68.71 69.44 69.65 68.61 68.55 67.85 68.12 68.03 68.19 67.97 68.11 68.59 67.62 67.20 68.24 68.10 68.48 68.73 68.97 70.46 70.95 70.89 68.40 69.48 69.04 68.32
48.01 48.65 48.82 52.15 50.46 53.86 62.16 60.43 60.05 59.10 62.17 63.44 63.14 61.70 60.37 59.72 59.83 61.31 62.31 63.40 64.36 63.56 65.60 67.23 68.15 67.81 67.21 67.14 66.91 67.01 66.33 65.47 64.47 64.64 64.96 65.20 65.97 65.93 66.87 67.68 68.32 68.20 69.53 68.91 68.93 70.46 69.47 67.63 67.72
49.89 53.33 59.37 59.93 59.82 60.41 60.34 60.17 60.97 59.17 62.31 60.93 60.00 58.02 57.44 57.08 57.50 59.39 60.99 60.97 61.22 61.59 60.69 63.60 65.69 66.99 67.28 66.60 65.25 63.07 62.35 62.72 62.91 62.22 61.54 61.86 62.48 63.41 64.10 64.39 65.29 65.15 66.51 66.87 66.77 67.99 70.05 69.66 67.10
52.41 56.57 59.04 58.69 60.10 59.30 61.75 57.66 56.79 59.93 61.14 58.55 57.65 57.49 57.34 57.12 58.12 57.71 58.40 58.08 59.01 59.41 60.36 60.67 63.76 63.99 63.35 63.59 63.37 61.91 60.25 59.66 58.77 58.80 59.76 59.53 59.01 59.64 60.45 59.98 59.92 62.59 63.37 65.09 65.20 66.25 68.27 69.05 69.80
49.10 50.31 51.74 57.94 58.60 59.73 58.30 53.97 57.11 59.65 59.99 56.89 56.10 55.72 55.42 55.89 56.22 56.64 56.69 56.61 57.53 58.38 58.92 59.55 59.93 60.40 60.35 58.92 59.03 59.48 58.47 57.35 56.17 56.18 56.68 57.81 56.97 56.75 57.45 57.08 56.79 57.46 59.48 59.68 59.93 62.12 64.04 65.53 66.89
47.50 46.11 46.19 54.73 57.46 58.49 57.55 54.89 57.61 59.13 58.83 56.31 55.17 54.78 54.18 53.89 54.48 54.83 55.11 55.34 55.59 55.93 56.47 55.89 56.18 55.80 58.00 59.76 57.38 56.14 55.17 52.71 53.82 54.66 54.60 55.44 55.64 55.55 55.16 55.09 55.48 56.13 55.97 56.53 56.54 57.51 59.20 61.18 62.37
45.23 45.30 45.58 51.37 54.77 57.22 55.99 55.30 56.02 56.56 57.30 55.45 54.24 53.93 53.12 52.72 52.43 53.73 54.26 54.60 54.75 54.89 55.03 55.09 54.93 55.26 55.62 57.32 60.07 57.90 55.75 54.12 53.58 53.54 53.55 54.26 54.52 54.60 54.39 54.44 54.98 55.20 54.87 54.73 54.91 55.22 56.60 57.67 60.81
47.74 46.29 48.08 52.78 56.27 55.16 55.05 53.13 52.88 55.21 55.79 54.08 53.29 52.85 52.41 52.22 53.35 53.79 53.97 53.98 53.83 53.86 53.69 53.48 53.38 53.77 53.54 53.65 53.45 55.10 53.25 52.81 52.55 52.88 53.61 53.69 54.05 54.24 54.47 53.98 54.41 54.72 54.34 54.64 55.05 54.57 54.58 54.96 57.57
47.28 50.56 51.27 53.92 55.79 55.04 53.26 50.76 52.36 53.69 54.92 54.78 53.33 52.48 52.06 52.28 52.87 52.87 53.51 53.42 52.94 52.58 52.58 52.56 52.36 52.57 52.40 52.09 52.00 52.45 52.11 52.57 51.87 52.42 53.11 53.53 53.81 54.14 53.95 53.95 53.91 54.54 53.75 54.72 54.66 54.58 53.56 54.15 55.16
46.40 50.08 51.28 51.59 53.67 54.43 51.88 49.04 50.63 52.78 54.52 54.39 54.28 53.93 53.15 52.62 52.40 52.43 52.62 52.45 52.46 51.75 51.49 51.34 51.60 51.71 51.92 52.23 52.23 52.28 52.68 52.86 51.10 51.07 51.39 52.72 53.44 53.94 54.57 54.28 53.99 54.59 54.35 53.81 54.65 54.48 53.93 51.89 54.16
46.68 49.64 53.10 52.36 51.76 47.62 53.61 46.26 50.08 52.32 53.48 53.63 53.29 52.92 53.00 52.81 53.43 52.99 52.55 52.04 51.81 51.03 51.13 51.25 51.44 51.55 51.55 52.12 51.51 50.94 49.38 48.43 49.66 50.28 51.62 52.27 53.36 53.79 54.12 54.51 54.55 54.98 54.39 54.81 54.84 54.92 52.75 51.94 52.60
47.67 54.99 54.31 53.28 49.75 50.90 49.94 47.83 50.15 53.52 52.46 53.57 53.67 53.30 53.87 53.79 53.42 52.97 52.44 51.97 51.40 51.07 50.60 51.08 51.38 51.12 51.33 51.66 51.30 50.32 49.85 49.82 50.31 50.69 51.67 52.23 53.09 53.85 53.86 54.53 54.65 54.98 54.29 55.36 55.87 55.91 54.49 53.56 51.10
51.96 48.07 47.84 46.18 46.36 42.67 46.66 48.52 47.94 49.99 53.18 55.34 54.83 53.96 53.88 53.50 53.34 53.39 52.67 51.81 50.80 50.64 50.31 50.31 50.33 50.11 50.56 50.84 50.98 50.70 50.04 49.85 49.35 49.94 50.02 50.92 52.21 52.82 53.76 54.00 54.49 55.32 54.58 55.57 56.20 55.16 55.81 54.83 54.56
48.39 47.79 42.48 40.32 40.61 40.10 44.30 46.07 49.19 50.66 52.80 54.13 54.57 54.26 53.84 53.38 53.47 52.17 50.97 50.64 50.13 49.37 48.74 49.74 49.35 49.12 49.84 50.50 50.97 50.51 50.59 50.49 50.17 50.26 49.92 50.11 50.36 51.10 52.30 53.41 53.65 54.12 54.97 55.77 56.04 55.38 54.83 53.98 53.32
45.86 47.93 43.70 35.46 38.48 40.88 43.87 42.28 49.35 51.97 52.83 54.33 55.62 56.01 54.35 53.07 53.63 52.46 51.30 50.58 49.59 48.83 47.84 48.22 49.12 49.22 49.40 49.52 50.27 50.78 50.58 49.89 50.37 50.53 50.37 50.09 50.16 50.73 52.48 52.95 53.65 54.47 54.86 54.45 54.31 53.03 52.49 52.76 52.03
45.74 45.42 46.24 41.97 40.33 40.28 42.87 45.76 51.29 51.19 51.92 53.64 53.13 53.75 52.82 52.46 52.54 51.95 50.69 50.11 49.13 48.52 47.23 48.24 48.88 49.11 48.86 49.33 49.99 50.00 50.16 50.83 50.56 51.17 50.11 48.59 49.18 50.45 51.86 53.29 53.86 54.16 53.69 53.48 53.12 52.01 52.07 52.48 52.17
48.49 46.91 43.67 44.32 36.45 35.23 40.08 41.28 44.09 49.13 51.98 51.72 52.10 52.34 52.68 52.42 51.74 51.12 50.02 48.46 48.48 48.46 48.89 48.32 49.04 48.41 48.76 49.65 49.47 49.60 50.43 51.09 51.40 49.10 49.20 49.66 50.55 51.40 51.44 51.85 52.92 52.88 52.67 52.50 52.02 50.30 50.82 51.05 51.65
46.07 45.48 43.79 45.60 43.29 38.65 37.00 41.82 50.54 51.75 53.17 52.95 53.34 53.46 52.73 50.77 50.79 50.35 48.26 48.13 48.37 48.34 49.32 48.56 48.25 48.27 49.01 49.58 50.26 50.74 50.94 51.41 51.16 50.68 51.28 51.18 50.77 50.38 49.86 50.34 51.28 51.79 52.03 52.64 51.58 50.28 49.96 50.03 50.47
48.09 46.82 47.47 43.60 40.52 41.96 41.40 42.00 49.71 52.36 52.87 54.31 53.57 53.20 52.29 51.42 50.95 49.92 48.17 47.96 47.60 47.97 48.79 48.60 48.24 47.85 49.20 49.71 50.45 50.69 51.26 51.32 51.45 51.63 51.86 51.85 50.40 50.16 49.43 49.88 50.10 50.38 50.94 52.43 51.61 49.90 49.27 48.90 48.81
MSLP
1012.04 1012.01 1011.89 1011.30 1010.66 1009.83 1009.97 1010.79 1010.95 1011.12 1011.29 1011.42 1011.53 1011.61 1012.02 1012.31 1013.03 1014.74 1015.28 1015.10 1015.06 1015.40 1015.27 1015.29 1015.50 1015.72 1016.00 1016.12 1015.93 1015.71 1015.51 1015.53 1015.54 1015.64 1015.86 1016.00 1016.08 1016.12 1016.16 1016.16 1016.14 1016.20 1016.28 1016.27 1016.20 1016.13 1016.10 1016.06 1016.04
1011.92 1011.90 1011.36 1010.31 1009.87 1009.52 1009.97 1010.65 1010.77 1010.72 1010.93 1011.80 1012.08 1012.17 1012.46 1013.38 1013.94 1014.76 1015.15 1015.34 1015.29 1015.51 1015.59 1015.36 1015.57 1015.77 1015.88 1016.01 1015.99 1016.07 1016.11 1016.03 1015.84 1015.83 1015.90 1016.04 1016.11 1016.18 1016.16 1016.14 1016.19 1016.26 1016.38 1016.44 1016.37 1016.29 1016.21 1016.18 1016.16
1011.94 1011.55 1010.43 1010.02 1010.02 1010.00 1010.18 1010.47 1010.49 1010.84 1011.69 1012.04 1012.38 1012.97 1013.63 1014.38 1014.52 1014.87 1015.33 1015.40 1015.32 1015.56 1015.71 1015.53 1015.60 1015.79 1015.96 1015.89 1015.85 1015.70 1015.76 1015.91 1015.85 1015.74 1015.85 1015.99 1016.07 1016.15 1016.22 1016.31 1016.35 1016.34 1016.37 1016.43 1016.48 1016.49 1016.42 1016.29 1016.22
1011.53 1010.91 1010.84 1010.08 1010.06 1010.74 1010.87 1010.66 1010.98 1011.57 1012.21 1012.48 1013.05 1013.80 1014.78 1014.96 1015.05 1015.37 1015.33 1015.29 1015.59 1015.70 1015.70 1015.75 1016.23 1016.22 1016.26 1016.42 1016.40 1016.18 1016.08 1015.91 1015.93 1015.96 1015.91 1015.95 1015.94 1016.03 1016.15 1016.18 1016.22 1016.23 1016.33 1016.39 1016.34 1016.28 1016.26 1016.25 1016.23
1011.34 1010.57 1009.83 1009.93 1010.55 1010.95 1011.15 1011.43 1011.78 1011.97 1012.38 1012.88 1013.33 1014.24 1014.74 1015.26 1015.51 1015.55 1015.52 1015.65 1015.85 1016.09 1016.16 1016.17 1016.47 1016.67 1016.84 1016.80 1016.66 1016.56 1016.48 1016.42 1016.32 1016.22 1016.20 1016.09 1015.92 1015.83 1015.91 1015.90 1015.86 1015.95 1016.06 1016.16 1016.19 1016.22 1016.22 1016.22 1016.17
1010.51 1010.62 1009.80 1009.72 1010.47 1010.94 1011.26 1011.61 1011.98 1012.41 1012.98 1013.40 1013.66 1014.26 1014.89 1015.47 1015.51 1015.79 1016.01 1016.08 1016.20 1016.55 1016.78 1016.71 1016.65 1016.70 1016.79 1016.84 1016.94 1016.84 1016.68 1016.49 1016.52 1016.36 1016.36 1016.38 1016.15 1015.94 1015.76 1015.82 1015.72 1015.64 1015.54 1015.53 1015.62 1015.75 1015.89 1015.93 1015.89
1010.10 1010.11 1009.98 1010.10 1010.17 1010.66 1011.15 1011.77 1011.84 1012.39 1013.15 1013.69 1014.29 1014.16 1015.42 1015.73 1015.90 1016.09 1016.51 1016.63 1016.53 1016.55 1016.61 1016.82 1016.83 1016.85 1016.93 1017.04 1016.94 1016.81 1016.77 1016.59 1016.51 1016.57 1016.54 1016.59 1016.62 1016.68 1016.55 1016.18 1016.14 1015.93 1015.78 1015.46 1015.17 1015.32 1015.38 1015.45 1015.52
1010.38 1010.18 1010.22 1010.15 1010.02 1010.24 1011.04 1011.91 1012.43 1012.45 1013.50 1014.26 1014.45 1014.47 1015.65 1016.51 1016.51 1016.72 1016.82 1016.86 1016.81 1016.76 1016.62 1016.70 1017.03 1017.03 1016.97 1016.82 1017.22 1017.27 1017.16 1016.98 1016.92 1016.83 1016.81 1016.82 1016.76 1016.68 1016.55 1016.30 1016.17 1016.19 1015.98 1015.77 1015.55 1014.99 1014.82 1014.98 1015.10
1010.66 1010.08 1009.72 1009.86 1010.03 1010.13 1010.89 1011.47 1012.70 1013.23 1013.59 1014.59 1015.38 1015.80 1016.67 1016.75 1016.64 1016.92 1017.09 1017.22 1017.27 1017.38 1017.30 1017.24 1017.24 1017.14 1017.07 1017.08 1017.32 1017.35 1017.31 1017.32 1017.22 1017.16 1017.04 1016.97 1016.64 1016.57 1016.23 1016.38 1016.23 1016.08 1015.96 1015.62 1015.49 1015.04 1014.64 1014.50 1014.62
1010.18 1009.97 1009.90 1010.06 1009.81 1010.08 1010.74 1011.49 1012.45 1013.24 1014.08 1015.34 1016.21 1016.79 1017.05 1017.15 1017.30 1017.71 1018.04 1018.42 1018.56 1018.52 1018.08 1017.85 1017.73 1017.52 1017.46 1017.35 1017.69 1017.58 1017.68 1017.65 1017.52 1017.30 1017.18 1016.91 1016.89 1016.90 1016.79 1016.37 1016.29 1016.17 1015.91 1015.60 1015.63 1015.23 1014.91 1014.51 1014.03
1010.46 1009.98 1010.31 1010.10 1009.95 1010.17 1010.97 1012.03 1012.96 1013.47 1014.57 1015.74 1016.53 1017.47 1017.84 1018.16 1018.62 1018.87 1019.18 1019.50 1019.64 1019.60 1019.12 1018.80 1018.38 1018.17 1017.87 1017.90 1017.94 1017.94 1018.01 1017.90 1017.77 1017.80 1017.54 1017.41 1017.10 1017.06 1016.81 1016.33 1016.21 1016.06 1015.89 1015.22 1015.27 1014.95 1014.70 1014.67 1014.26
1010.25 1010.21 1010.31 1010.16 1010.39 1010.62 1011.18 1012.45 1013.64 1014.31 1015.99 1016.77 1017.52 1018.25 1018.55 1019.14 1019.71 1019.97 1020.21 1020.36 1020.28 1019.95 1019.77 1019.15 1018.86 1018.62 1018.65 1018.40 1018.39 1018.45 1018.35 1018.29 1018.35 1018.29 1018.09 1017.80 1017.44 1017.38 1017.04 1016.83 1016.57 1016.42 1015.95 1015.54 1015.23 1015.08 1014.98 1014.78 1014.68
1010.17 1010.20 1010.53 1010.72 1010.78 1011.16 1011.95 1012.99 1014.43 1016.33 1017.20 1017.65 1018.40 1019.02 1019.60 1020.02 1020.44 1020.65 1020.78 1020.72 1020.68 1020.47 1020.14 1019.82 1019.44 1019.22 1019.12 1019.08 1019.18 1019.16 1019.22 1019.20 1019.26 1019.03 1018.79 1018.53 1018.38 1018.06 1017.55 1017.15 1016.89 1016.80 1016.16 1015.93 1015.71 1014.96 1014.72 1014.55 1014.30
1010.18 1010.42 1010.84 1011.12 1011.21 1011.79 1012.29 1013.83 1014.50 1017.37 1017.78 1018.40 1018.98 1019.84 1020.50 1020.89 1021.06 1021.00 1021.04 1021.07 1020.98 1020.87 1020.90 1020.55 1020.10 1019.95 1019.73 1019.70 1019.91 1019.92 1019.96 1019.92 1019.66 1019.55 1019.49 1019.26 1018.82 1018.55 1018.10 1017.53 1017.17 1016.95 1016.56 1016.11 1015.75 1015.40 1014.75 1014.38 1014.07
1010.02 1010.41 1010.92 1011.48 1011.65 1012.22 1012.50 1013.98 1016.03 1017.47 1018.07 1019.01 1019.82 1020.64 1021.14 1021.47 1021.54 1021.59 1021.74 1021.70 1021.59 1021.44 1021.47 1021.12 1020.84 1020.85 1020.79 1020.68 1020.49 1020.48 1020.48 1020.32 1020.25 1020.11 1020.01 1019.67 1019.38 1019.03 1018.41 1017.83 1017.55 1017.20 1016.90 1016.45 1015.85 1015.36 1014.90 1014.39 1013.93
1009.66 1010.12 1010.26 1011.53 1011.88 1012.47 1012.90 1014.66 1016.79 1017.81 1018.22 1019.43 1020.45 1021.11 1021.53 1021.95 1022.10 1022.31 1022.34 1022.22 1022.21 1022.03 1021.98 1021.90 1021.68 1021.57 1021.51 1021.53 1021.26 1020.82 1020.92 1020.77 1020.82 1020.53 1020.27 1020.09 1019.84 1019.45 1018.71 1018.30 1018.20 1018.07 1017.32 1016.92 1016.52 1015.97 1015.29 1014.78 1014.52
1009.69 1009.53 1010.34 1011.50 1012.28 1012.39 1013.03 1014.91 1016.99 1018.07 1018.55 1019.61 1020.46 1021.21 1021.78 1022.09 1022.43 1022.57 1022.67 1022.52 1022.51 1022.47 1022.35 1022.22 1022.22 1022.15 1021.98 1021.76 1021.76 1021.77 1021.74 1021.70 1021.21 1020.85 1020.65 1020.41 1020.10 1019.74 1019.26 1018.97 1018.72 1018.41 1017.78 1017.41 1017.15 1016.66 1016.23 1015.38 1014.97
1009.13 1009.70 1010.73 1011.32 1012.52 1013.10 1013.95 1015.68 1017.53 1018.48 1018.78 1019.55 1020.64 1021.24 1021.81 1022.38 1022.82 1023.11 1023.22 1023.11 1023.28 1023.18 1023.05 1022.86 1022.71 1022.53 1022.15 1021.77 1021.49 1021.50 1021.39 1021.43 1021.33 1021.14 1021.07 1020.82 1020.42 1020.14 1019.76 1019.27 1019.06 1018.56 1018.07 1017.75 1017.48 1017.16 1016.65 1016.05 1015.04
1009.43 1009.91 1010.80 1012.43 1013.32 1013.88 1015.05 1016.82 1018.22 1018.85 1019.21 1019.70 1020.47 1021.30 1021.83 1022.59 1023.13 1023.53 1023.61 1023.71 1023.80 1023.67 1023.52 1023.53 1023.37 1023.19 1022.81 1022.18 1021.74 1021.35 1021.40 1021.51 1021.41 1021.44 1021.47 1021.14 1020.77 1020.36 1020.00 1019.53 1019.25 1018.96 1018.54 1018.41 1017.95 1017.43 1016.75 1015.93 1015.49
1009.59 1010.28 1011.56 1013.12 1013.82 1014.22 1016.02 1017.50 1018.62 1019.06 1019.25 1019.72 1020.32 1021.11 1021.56 1022.43 1022.91 1023.50 1023.69 1023.93 1024.07 1024.15 1024.18 1024.09 1023.83 1023.78 1023.47 1023.04 1022.76 1022.53 1022.22 1021.93 1021.99 1021.81 1021.62 1021.38 1020.95 1020.55 1020.13 1020.03 1019.59 1019.38 1018.82 1018.56 1018.28 1017.89 1017.07 1016.35 1016.06
1009.52 1009.85 1011.21 1012.14 1013.97 1014.91 1016.02 1017.41 1018.29 1018.96 1019.34 1019.79 1020.28 1020.85 1021.46 1021.89 1022.54 1023.26 1023.60 1023.98 1024.27 1024.41 1024.53 1024.64 1024.55 1024.38 1024.04 1023.72 1023.03 1022.59 1022.38 1022.08 1021.91 1021.89 1021.65 1021.36 1021.00 1020.66 1020.45 1020.19 1019.91 1019.47 1019.02 1018.60 1018.43 1018.16 1017.88 1017.16 1016.43
1009.03 1009.66 1010.73 1011.85 1012.51 1013.83 1014.96 1015.36 1016.80 1017.74 1018.47 1019.11 1019.76 1020.67 1020.97 1021.73 1022.40 1022.95 1023.43 1023.78 1024.12 1024.54 1024.89 1025.03 1024.94 1024.73 1024.43 1024.18 1023.50 1023.33 1022.89 1022.57 1022.65 1022.30 1021.98 1021.38 1021.17 1020.87 1020.66 1020.33 1020.01 1019.64 1019.09 1018.83 1018.62 1018.49 1018.44 1018.14 1016.91
1009.31 1010.05 1010.78 1011.71 1012.11 1012.77 1014.22 1014.41 1014.96 1016.41 1016.90 1017.42 1018.70 1019.58 1020.39 1021.14 1021.94 1022.64 1023.12 1023.57 1024.22 1024.61 1024.93 1025.08 1025.05 1025.05 1024.88 1024.48 1024.12 1023.66 1023.39 1023.10 1022.83 1022.49 1022.09 1021.60 1021.21 1021.08 1020.84 1020.49 1020.14 1019.75 1019.20 1019.08 1018.81 1018.49 1018.45 1018.33 1018.15
1009.52 1010.18 1010.98 1011.62 1011.84 1012.14 1012.98 1013.61 1013.32 1014.79 1014.73 1016.09 1017.72 1018.70 1019.70 1020.68 1021.71 1022.44 1023.16 1023.83 1024.30 1024.70 1025.02 1025.20 1025.28 1025.28 1024.99 1024.60 1024.36 1024.17 1023.92 1023.59 1023.08 1022.80 1022.26 1021.77 1021.34 1021.02 1020.99 1020.65 1020.27 1019.92 1019.51 1019.09 1018.80 1018.85 1018.55 1018.39 1018.03
1009.35 1009.67 1010.36 1010.93 1011.41 1011.95 1013.18 1013.55 1012.59 1013.98 1014.91 1015.63 1016.48 1017.65 1019.03 1020.24 1021.26 1022.24 1023.02 1023.67 1024.31 1024.77 1025.16 1025.26 1025.52 1025.32 1025.15 1024.86 1024.58 1024.42 1024.20 1023.94 1023.43 1023.13 1022.62 1022.30 1021.71 1021.36 1021.15 1020.91 1020.58 1020.12 1019.90 1019.51 1019.16 1018.98 1018.72 1018.56 1018.28
1009.42 1009.66 1009.98 1010.62 1011.41 1012.08 1013.23 1012.77 1012.82 1014.23 1015.05 1015.49 1016.10 1017.22 1018.51 1019.99 1020.97 1021.92 1022.88 1023.72 1024.37 1025.03 1025.42 1025.56 1025.52 1025.35 1025.30 1025.05 1024.76 1024.54 1024.37 1023.96 1023.63 1023.38 1022.98 1022.52 1022.11 1021.77 1021.58 1021.17 1020.83 1020.50 1020.16 1019.82 1019.51 1019.15 1018.97 1018.88 1018.57
1009.73 1010.16 1011.12 1011.41 1012.64 1012.27 1012.35 1012.74 1012.77 1013.94 1014.60 1015.33 1016.14 1017.21 1018.41 1019.63 1020.71 1021.80 1023.05 1023.83 1024.54 1025.10 1025.50 1025.59 1025.54 1025.44 1025.40 1025.18 1024.92 1024.65 1024.44 1024.19 1023.93 1023.66 1023.41 1023.10 1022.81 1022.18 1021.69 1021.32 1020.98 1020.67 1020.39 1020.11 1019.70 1019.55 1019.37 1019.16 1019.03
1009.61 1010.83 1011.31 1011.40 1011.81 1011.85 1012.04 1012.35 1012.16 1013.13 1013.85 1015.04 1015.87 1016.69 1017.85 1019.24 1020.67 1021.91 1023.01 1023.97 1024.70 1025.19 1025.51 1025.70 1025.76 1025.63 1025.50 1025.28 1025.07 1024.79 1024.64 1024.44 1024.19 1024.05 1023.64 1023.18 1022.68 1022.24 1021.92 1021.63 1021.30 1020.96 1020.67 1020.39 1020.11 1019.86 1019.86 1019.60 1019.33
1010.37 1010.71 1011.60 1011.95 1012.36 1012.01 1011.83 1011.49 1012.10 1012.58 1013.30 1014.03 1015.05 1016.14 1017.56 1019.17 1020.53 1021.82 1023.17 1024.13 1024.71 1025.20 1025.45 1025.63 1025.67 1025.64 1025.49 1025.39 1025.23 1024.97 1024.75 1024.58 1024.28 1024.02 1023.62 1023.29 1022.99 1022.74 1022.40 1022.13 1021.70 1021.34 1021.05 1020.86 1020.58 1020.36 1020.22 1019.93 1019.67
1010.03 1010.49 1011.00 1011.51 1012.62 1012.89 1012.51 1011.74 1012.12 1012.71 1013.30 1014.12 1015.05 1016.35 1017.76 1019.27 1020.51 1021.84 1023.10 1023.94 1024.58 1025.01 1025.38 1025.59 1025.71 1025.60 1025.60 1025.52 1025.32 1025.14 1024.87 1024.63 1024.31 1024.08 1023.80 1023.51 1023.23 1022.99 1022.72 1022.36 1021.98 1021.67 1021.43 1021.21 1020.99 1020.74 1020.55 1020.21 1019.84
Wind_Speed
6 5 2 4 1 3 3 5 2 5 4 2 3 5 6 12 6 3 2 4 7 4 4 7 8 9 8 8 10 11 12 13 14 14 13 12 11 9 8 6 6 5 5 5 5 5 4 4 3
5 3 3 0 5 5 4 2 6 11 3 3 2 5 10 7 7 4 4 4 5 4 3 7 10 10 10 10 10 11 11 11 12 12 12 11 9 7 6 6 5 5 5 4 4 4 3 3 2
4 2 3 3 3 7 6 5 8 7 8 2 3 7 5 4 2 3 5 6 5 5 3 6 10 9 9 10 11 12 12 11 11 11 10 9 7 6 5 5 5 4 4 3 4 4 3 2 2
2 2 3 4 10 5 4 3 5 9 2 3 4 8 4 2 4 6 5 6 5 4 4 7 6 6 7 7 8 9 10 11 10 9 9 7 6 5 3 2 1 1 2 2 2 3 4 4 4
1 1 2 4 8 4 4 8 3 5 1 3 3 4 3 3 4 3 4 4 5 5 5 5 5 5 5 5 6 7 7 7 7 7 6 6 6 6 6 5 4 2 2 4 5 6 7 7 7
1 1 2 5 7 2 4 6 6 2 2 4 4 4 4 4 6 5 6 6 6 7 8 8 7 7 6 5 4 5 6 6 3 3 2 3 4 5 6 6 6 6 7 6 5 6 7 7 7
2 2 1 2 3 6 4 3 3 6 3 5 3 3 4 9 7 9 9 8 7 7 7 6 5 5 8 6 5 5 3 3 2 1 2 4 5 7 6 5 6 7 8 9 8 8 8 8 9
3 3 6 2 3 4 6 5 4 4 4 3 3 4 6 5 10 11 9 9 10 9 8 6 5 5 4 5 6 5 5 5 6 7 8 9 9 9 8 7 7 11 11 12 11 9 9 9 9
2 4 7 5 7 6 7 4 2 3 8 5 7 10 9 10 11 11 10 11 10 10 9 7 6 5 5 5 7 7 9 10 10 9 11 8 6 7 6 5 7 7 8 7 6 5 9 8 8
2 4 7 4 5 9 3 4 8 6 6 9 15 14 13 13 14 15 12 11 13 11 10 9 7 5 5 5 7 8 8 7 7 8 9 6 6 6 9 7 8 8 9 8 9 7 2 3 2
4 3 7 6 7 5 7 9 3 11 8 5 14 11 14 15 15 14 13 11 9 8 8 10 7 8 7 6 5 4 4 5 6 10 9 7 5 5 5 4 4 5 7 5 5 6 4 6 4
3 4 5 3 7 5 9 12 9 12 10 14 14 13 14 15 13 12 11 10 8 10 9 11 10 9 9 6 6 6 6 6 6 8 10 7 5 6 5 4 5 6 6 7 7 5 6 5 2
3 1 3 2 5 4 12 10 13 17 16 17 16 17 15 14 12 11 8 9 9 10 12 12 10 9 8 8 6 7 7 7 7 8 10 9 7 5 5 6 6 7 8 8 8 7 6 6 5
4 2 8 6 9 8 15 12 5 9 16 17 18 15 14 14 11 9 10 10 11 10 12 11 12 11 9 9 10 8 8 7 7 8 10 11 8 7 7 6 6 7 8 8 7 8 7 7 7
7 9 9 5 7 7 16 8 11 13 16 17 16 13 14 12 11 12 9 10 9 8 9 10 9 11 10 9 7 7 7 8 8 7 11 11 11 9 9 7 8 8 8 10 9 9 8 7 8
4 3 5 7 3 7 4 9 10 10 16 15 14 12 12 12 12 10 9 10 9 9 10 10 8 9 10 8 7 6 7 7 6 7 7 11 12 12 9 8 8 9 8 8 9 9 9 8 8
2 4 4 9 2 5 3 9 10 9 14 13 12 11 10 11 11 10 10 10 10 10 10 11 10 9 8 6 5 6 7 7 6 7 7 10 10 11 9 7 8 9 8 7 8 8 8 8 8
5 5 4 7 4 4 7 10 11 8 11 12 12 11 11 10 10 8 8 9 9 10 11 11 10 11 8 4 2 2 4 6 7 7 8 11 9 11 9 7 9 9 8 8 9 10 8 9 8
7 3 6 4 5 4 8 12 7 8 10 11 10 10 11 10 9 7 7 8 9 10 11 11 11 11 9 6 6 4 6 6 7 7 10 10 9 10 9 8 8 8 8 9 9 8 9 8 8
6 12 6 8 6 6 10 8 6 6 7 9 11 11 12 11 9 7 8 8 8 9 9 10 11 10 8 7 5 4 5 4 6 7 8 9 9 9 8 8 7 9 7 9 9 9 8 6 7
7 9 13 6 10 10 14 5 7 5 6 8 8 9 10 11 10 8 8 7 7 8 8 8 8 8 9 9 6 5 3 3 6 7 7 8 10 10 9 9 8 8 7 7 8 8 8 7 7
6 3 13 17 7 4 8 3 13 12 11 13 13 12 11 12 10 8 8 7 7 7 6 6 7 8 8 9 8 9 6 7 7 7 7 7 9 9 9 9 8 8 6 8 7 6 5 5 9
5 10 13 9 5 7 9 5 8 11 17 19 16 14 13 12 11 10 8 6 6 5 6 7 8 9 8 8 8 7 7 6 5 6 9 9 8 8 9 9 8 8 6 7 7 7 7 4 3
18 9 7 3 2 4 4 6 5 9 17 13 16 16 14 13 12 10 8 6 5 5 6 6 7 7 8 9 8 8 9 9 8 8 7 7 7 6 8 9 8 8 9 9 7 8 7 7 5
2 6 3 4 4 2 2 5 4 2 4 7 18 18 16 15 14 12 10 7 5 3 5 5 6 8 8 9 9 8 8 8 8 9 7 8 7 7 9 9 8 7 8 8 7 7 7 8 7
3 2 2 3 3 2 3 5 0 1 2 4 10 15 15 14 13 12 10 7 6 3 3 5 6 8 8 8 9 8 9 6 6 8 7 7 7 7 9 7 7 7 7 7 7 6 7 8 7
5 3 3 6 2 4 1 2 7 2 2 8 9 14 15 15 14 13 10 8 6 3 2 5 7 8 8 8 8 8 8 9 8 9 8 6 7 6 9 7 7 7 8 9 8 8 8 8 8
1 9 3 1 2 4 3 3 5 4 7 8 13 16 17 15 14 13 10 8 5 3 4 4 6 7 8 8 7 7 7 7 7 7 8 9 9 9 9 9 8 8 9 9 9 8 8 7 6
5 4 6 4 2 4 6 2 3 4 8 13 15 16 17 16 15 13 10 8 6 4 3 4 5 6 7 7 7 7 7 7 6 7 8 9 9 9 9 8 7 7 8 8 8 9 9 9 8
2 3 4 3 4 0 2 5 3 4 4 9 10 13 14 15 15 13 11 9 7 5 3 3 4 5 6 6 5 6 6 6 6 7 8 8 8 8 9 8 8 7 6 6 7 8 8 8 8
Wind_Direction
140 145 183 219 150 44 79 116 116 168 206 192 19 344 344 40 30 57 91 34 92 87 100 119 108 102 106 109 111 110 107 103 101 99 94 91 92 95 95 93 92 86 77 70 69 71 67 68 72
153 172 219 271 58 56 57 130 201 206 151 74 123 9 34 57 42 86 138 78 82 74 101 124 111 116 122 119 109 99 96 96 100 100 101 102 101 98 96 93 84 78 72 65 66 67 61 41 25
188 287 304 45 54 45 342 273 268 184 133 60 63 42 34 26 53 69 61 101 98 96 114 122 115 132 135 131 125 124 123 122 117 115 116 117 110 98 85 70 58 56 58 50 31 17 358 333 318
235 197 116 43 46 51 310 315 137 133 150 330 79 71 86 305 5 30 88 106 116 119 121 117 95 122 126 121 117 119 123 127 128 128 131 136 136 130 122 107 83 33 355 341 324 301 292 294 292
2 311 13 72 64 54 86 118 93 158 123 79 20 100 108 79 36 63 99 103 83 69 54 71 48 61 71 85 104 107 111 110 119 128 140 152 161 169 179 186 186 215 293 305 307 308 305 305 304
139 292 327 46 76 114 129 184 165 202 89 95 86 112 87 36 35 42 77 75 63 57 48 36 39 68 76 93 85 76 79 88 92 122 168 209 205 202 200 210 212 216 219 225 244 266 279 280 279
200 136 162 99 47 149 152 147 150 121 108 69 77 83 78 56 47 84 80 79 74 66 81 82 74 67 76 76 93 103 98 104 117 23 326 306 306 307 305 290 286 276 267 246 230 246 254 257 265
125 116 159 161 126 88 154 135 125 133 97 96 354 92 86 66 84 94 92 78 61 50 50 64 80 66 75 93 63 41 27 25 12 3 355 348 338 354 335 316 5 331 323 303 279 245 234 242 251
171 165 207 183 179 139 158 158 91 89 115 67 29 58 97 103 99 89 79 62 53 46 48 41 49 71 65 59 52 28 22 18 20 17 9 356 351 360 352 0 339 357 342 346 336 305 250 238 245
170 210 197 193 178 155 145 168 134 154 108 79 89 91 81 80 76 68 56 45 32 25 30 28 34 33 54 59 35 37 26 20 16 8 1 355 7 356 341 349 356 351 358 348 340 352 340 240 307
148 209 173 204 216 157 122 126 96 133 87 77 117 92 82 72 62 66 57 49 35 21 30 31 41 42 44 43 27 26 20 14 23 20 16 19 17 11 6 25 32 19 16 7 338 340 355 345 3
197 202 188 142 218 181 162 123 89 62 90 101 96 85 80 69 62 58 56 48 33 39 35 39 37 42 39 32 29 24 32 29 33 23 22 21 21 21 20 16 359 346 350 348 345 331 325 317 296
213 46 151 305 171 133 122 110 102 96 103 95 85 72 63 68 64 62 59 50 44 33 26 29 31 35 37 42 43 41 34 37 38 32 28 21 11 7 11 23 12 4 357 356 344 325 316 313 301
122 59 100 99 130 138 126 123 107 110 109 93 82 78 74 66 60 62 47 40 33 24 18 15 32 30 43 51 49 47 42 35 36 36 27 31 21 14 18 15 18 11 3 354 352 342 324 306 294
152 102 111 83 130 116 127 83 96 125 110 96 95 89 82 77 70 60 54 50 38 40 26 23 29 31 41 49 58 55 46 44 34 26 25 25 26 17 11 19 12 4 2 354 353 354 341 323 312
152 155 145 144 131 144 267 139 130 141 117 107 101 98 92 79 75 66 62 61 51 49 46 48 44 51 54 46 40 49 45 45 33 26 22 19 16 15 13 11 8 357 355 357 354 350 341 338 327
106 157 130 161 93 149 330 138 148 146 128 117 112 110 98 91 79 72 67 66 61 57 51 49 37 28 24 38 51 53 50 38 24 28 20 17 16 16 8 10 4 351 350 352 348 341 336 328 319
139 130 122 165 140 73 87 109 127 145 136 128 122 120 111 101 91 86 86 74 66 58 53 51 44 29 13 0 4 50 46 32 30 28 22 17 16 15 8 8 5 358 355 352 351 339 331 317 311
118 154 133 76 13 100 117 131 133 149 140 137 131 127 120 114 116 117 99 82 72 60 58 46 39 26 19 9 356 360 9 16 27 22 20 17 15 16 18 9 7 360 4 355 353 345 335 325 332
150 145 112 88 55 96 137 115 130 177 158 159 149 147 141 138 137 128 114 98 76 65 54 45 40 31 24 25 14 352 346 12 11 13 15 16 12 15 14 10 8 8 356 2 359 359 343 331 349
176 179 169 141 113 81 141 134 179 186 168 163 166 152 154 157 154 143 112 91 89 72 52 43 37 31 27 13 12 8 0 353 8 7 8 13 11 13 12 13 7 4 356 4 1 3 356 342 339
156 243 142 139 175 136 220 167 201 191 191 195 175 169 172 171 157 144 139 124 93 73 58 42 36 27 29 16 22 21 12 2 2 357 2 359 13 10 7 6 7 5 358 7 8 10 349 343 343
107 131 127 147 94 149 194 258 119 198 217 204 184 186 184 172 160 163 153 128 102 78 43 32 27 22 14 19 18 6 8 1 351 355 354 3 7 11 11 8 3 5 5 6 4 8 13 14 313
137 107 88 96 128 228 162 242 179 187 235 203 189 190 183 173 169 166 147 135 115 78 37 25 14 11 9 18 20 17 12 357 352 357 352 359 2 2 14 3 6 9 2 5 12 8 18 7 356
144 164 159 200 204 311 66 204 303 207 220 224 198 184 177 174 173 169 162 160 134 79 8 6 5 9 17 22 26 20 9 5 359 355 357 353 355 0 3 353 1 2 5 11 16 24 28 27 24
111 203 217 271 276 27 162 232 136 27 270 215 204 186 172 173 175 174 165 157 142 112 28 6 2 10 15 15 14 16 11 11 14 19 9 13 4 3 0 359 5 12 25 25 25 34 26 29 30
138 140 53 107 85 243 95 242 249 241 221 204 179 180 178 177 178 171 159 159 150 131 69 17 6 12 17 21 9 15 15 22 24 22 20 14 14 3 24 26 30 33 34 41 43 41 30 31 31
30 126 156 112 203 279 196 257 276 224 213 188 193 191 183 176 169 166 166 153 140 121 89 32 18 22 29 19 25 31 35 30 30 25 23 20 19 19 23 25 28 40 46 41 29 28 27 22 24
147 147 71 97 326 277 292 253 200 215 206 205 202 196 181 172 170 169 158 153 142 135 113 42 24 33 35 40 37 41 37 37 44 32 27 21 24 21 26 26 33 35 37 32 35 36 34 38 34
78 140 151 204 188 184 300 282 181 234 258 221 199 189 175 172 170 166 159 156 156 150 134 56 34 49 45 42 32 40 45 46 38 26 22 20 26 27 23 22 23 12 3 15 29 37 36 34 28